GW2148 Weather Reports


Display with metric or nautical units.
time (UTC)temp
F
wind
direction
speed
MPH
gust
MPH
rain 1hr
in
rain 24hr
in
rain mn
in
humidity
%
barometer
mb
20260505011026 71 51 0.0 5.0 0.00 0.00 0.00 51 1001.9
20260505010525 71 47 1.0 5.0 0.00 0.00 0.00 47 1002.2
20260505010222 71 5 2.0 4.0 0.00 0.00 0.00 48 1002.0
20260505005545 71 317 0.0 0.0 0.00 0.00 0.00 48 1002.3
20260505005042 71 33 0.0 0.0 0.00 0.00 0.00 50 1002.3
20260505004720 72 103 0.0 1.0 0.00 0.00 0.00 48 1002.3
20260505004038 72 130 0.0 4.0 0.00 0.00 0.00 46 1002.6
20260505003535 73 135 2.0 6.0 0.00 0.00 0.00 44 1002.2
20260505003213 73 142 4.0 9.0 0.00 0.00 0.00 42 1002.4
20260505002538 74 236 5.0 22.0 0.00 0.00 0.00 42 1002.7
20260505002037 75 254 11.0 22.0 0.00 0.00 0.00 39 1003.0
20260505001631 77 232 10.0 25.0 0.00 0.00 0.00 35 1003.0
20260505001037 78 96 8.0 25.0 0.00 0.00 0.00 32 1003.5
20260505000530 78 296 17.0 24.0 0.00 0.00 0.00 29 1002.6
20260505000213 78 290 8.0 15.0 0.00 0.00 0.00 32 1002.3
20260504235518 78 271 0.0 1.0 0.00 0.00 0.00 31 1002.1
20260504235042 79 253 0.0 1.0 0.00 0.00 0.00 30 1001.9
20260504234654 79 260 0.0 0.0 0.00 0.00 0.00 29 1002.1
20260504234040 79 239 0.0 1.0 0.00 0.00 0.00 29 1001.8
20260504233541 79 238 0.0 1.0 0.00 0.00 0.00 29 1001.8
20260504233156 79 228 0.0 5.0 0.00 0.00 0.00 29 1001.7
20260504232539 79 202 2.0 6.0 0.00 0.00 0.00 29 1001.8
20260504232052 79 161 4.0 9.0 0.00 0.00 0.00 29 1001.7
20260504231643 80 160 6.0 12.0 0.00 0.00 0.00 29 1001.6
20260504231038 80 146 7.0 12.0 0.00 0.00 0.00 29 1001.7
20260504230521 80 121 9.0 13.0 0.00 0.00 0.00 29 1001.9
20260504230213 79 99 8.0 13.0 0.00 0.00 0.00 29 1001.6
20260504225545 79 142 9.0 13.0 0.00 0.00 0.00 31 1001.9
20260504225033 79 143 11.0 17.0 0.00 0.00 0.00 30 1002.2
20260504224652 80 165 11.0 19.0 0.00 0.00 0.00 29 1002.0
20260504224041 81 161 15.0 19.0 0.00 0.00 0.00 28 1001.9
20260504223525 82 163 11.0 19.0 0.00 0.00 0.00 26 1002.0
20260504223152 83 158 11.0 18.0 0.00 0.00 0.00 27 1002.2
20260504222534 85 188 14.0 18.0 0.00 0.00 0.00 26 1002.4
20260504222045 85 132 10.0 16.0 0.00 0.00 0.00 25 1002.2
20260504221703 85 101 12.0 16.0 0.00 0.00 0.00 25 1002.1
20260504221033 85 107 10.0 14.0 0.00 0.00 0.00 25 1002.2
20260504220533 84 134 10.0 13.0 0.00 0.00 0.00 26 1002.1
20260504220201 84 110 9.0 14.0 0.00 0.00 0.00 25 1002.2
20260504215534 85 95 9.0 14.0 0.00 0.00 0.00 24 1002.2
20260504215031 85 112 10.0 15.0 0.00 0.00 0.00 23 1002.1
20260504214653 86 105 11.0 17.0 0.00 0.00 0.00 22 1002.0
20260504214045 87 155 11.0 17.0 0.00 0.00 0.00 21 1001.9
20260504213544 87 111 7.0 14.0 0.00 0.00 0.00 20 1002.1
20260504213153 86 96 6.0 14.0 0.00 0.00 0.00 19 1002.2
20260504212527 87 121 7.0 17.0 0.00 0.00 0.00 20 1002.2
20260504212033 87 101 12.0 17.0 0.00 0.00 0.00 21 1002.3
20260504211700 87 132 12.0 17.0 0.00 0.00 0.00 20 1002.2
20260504211019 87 63 7.0 15.0 0.00 0.00 0.00 22 1002.4
20260504210526 87 98 7.0 16.0 0.00 0.00 0.00 22 1002.5
20260504210218 88 125 12.0 22.0 0.00 0.00 0.00 21 1002.6
20260504205519 88 116 10.0 23.0 0.00 0.00 0.00 22 1002.4
20260504205045 88 125 11.0 18.0 0.00 0.00 0.00 23 1002.7
20260504204619 88 55 4.0 12.0 0.00 0.00 0.00 21 1002.8
20260504204035 88 82 7.0 12.0 0.00 0.00 0.00 20 1002.9
20260504203545 87 86 5.0 15.0 0.00 0.00 0.00 20 1002.8
20260504203217 87 105 5.0 13.0 0.00 0.00 0.00 19 1003.0
20260504202536 87 89 6.0 14.0 0.00 0.00 0.00 20 1003.2
20260504202019 87 103 9.0 14.0 0.00 0.00 0.00 20 1003.3
20260504201719 88 141 7.0 12.0 0.00 0.00 0.00 19 1003.3
20260504201026 88 103 5.0 13.0 0.00 0.00 0.00 20 1003.4
20260504200546 88 93 6.0 13.0 0.00 0.00 0.00 19 1003.4
20260504200211 88 54 5.0 12.0 0.00 0.00 0.00 18 1003.5
20260504195522 88 86 3.0 14.0 0.00 0.00 0.00 18 1003.5
20260504195027 88 80 5.0 15.0 0.00 0.00 0.00 17 1003.6
20260504194642 88 94 9.0 15.0 0.00 0.00 0.00 18 1003.6
20260504194018 88 83 8.0 16.0 0.00 0.00 0.00 18 1003.8
20260504193543 88 70 8.0 16.0 0.00 0.00 0.00 18 1003.8
20260504193157 87 59 9.0 13.0 0.00 0.00 0.00 19 1003.7
20260504192546 87 78 5.0 15.0 0.00 0.00 0.00 17 1003.8
20260504192034 87 42 4.0 15.0 0.00 0.00 0.00 19 1003.9
20260504191635 87 86 5.0 17.0 0.00 0.00 0.00 18 1003.9
20260504191043 87 57 8.0 17.0 0.00 0.00 0.00 18 1004.1
20260504190520 86 78 7.0 14.0 0.00 0.00 0.00 17 1004.3
20260504190228 86 115 7.0 15.0 0.00 0.00 0.00 18 1004.4
20260504185542 86 92 7.0 15.0 0.00 0.00 0.00 18 1004.5
20260504185038 86 54 6.0 12.0 0.00 0.00 0.00 19 1004.5
20260504184636 86 24 6.0 13.0 0.00 0.00 0.00 19 1004.5
20260504184024 87 74 7.0 16.0 0.00 0.00 0.00 19 1004.6
20260504183521 86 96 10.0 16.0 0.00 0.00 0.00 20 1004.5
20260504183138 86 65 9.0 15.0 0.00 0.00 0.00 19 1004.6
20260504182524 86 38 7.0 15.0 0.00 0.00 0.00 19 1004.7
20260504182031 86 59 9.0 14.0 0.00 0.00 0.00 19 1004.8
20260504181624 85 51 7.0 13.0 0.00 0.00 0.00 20 1004.4
20260504181045 85 82 6.0 13.0 0.00 0.00 0.00 20 1004.6
20260504180535 85 55 5.0 13.0 0.00 0.00 0.00 20 1004.6
20260504180220 85 18 6.0 13.0 0.00 0.00 0.00 20 1004.9
20260504175521 85 70 8.0 13.0 0.00 0.00 0.00 19 1004.8
20260504175021 85 32 4.0 12.0 0.00 0.00 0.00 20 1004.9
20260504174653 85 80 5.0 13.0 0.00 0.00 0.00 22 1005.0
20260504174025 84 93 6.0 12.0 0.00 0.00 0.00 21 1004.9
20260504173538 83 81 4.0 11.0 0.00 0.00 0.00 21 1005.0
20260504173144 83 83 5.0 14.0 0.00 0.00 0.00 22 1005.0
20260504172528 83 38 6.0 14.0 0.00 0.00 0.00 23 1005.2
20260504172042 83 43 5.0 14.0 0.00 0.00 0.00 24 1005.2
20260504171702 82 46 4.0 9.0 0.00 0.00 0.00 24 1005.3
20260504171031 82 74 2.0 15.0 0.00 0.00 0.00 25 1005.3
20260504170522 82 28 6.0 15.0 0.00 0.00 0.00 24 1005.4
20260504170212 82 16 4.0 12.0 0.00 0.00 0.00 25 1005.2
20260504160129 78 269 0.0 8.0 0.00 0.00 0.00 32 1004.8
20260504151027 73 238 6.0 11.0 0.00 0.00 0.00 37 1004.6
20260504150535 72 250 6.0 12.0 0.00 0.00 0.00 39 1004.7
20260504150152 71 232 7.0 12.0 0.00 0.00 0.00 39 1004.8
20260504141042 66 242 6.0 12.0 0.00 0.00 0.00 48 1004.9
20260504140534 65 248 8.0 12.0 0.00 0.00 0.00 48 1004.9
20260504140149 64 240 7.0 12.0 0.00 0.00 0.00 49 1004.9
20260504060130 67 171 7.0 12.0 0.00 0.00 0.00 37 1006.7
20260504050536 68 190 6.0 13.0 0.00 0.00 0.00 36 1006.7
20260504050143 68 186 8.0 13.0 0.00 0.00 0.00 35 1006.8
20260504045525 68 186 8.0 13.0 0.00 0.00 0.00 35 1006.8
20260504045035 68 205 8.0 13.0 0.00 0.00 0.00 35 1006.9
20260504044613 68 193 8.0 13.0 0.00 0.00 0.00 34 1006.8
20260504044019 68 184 8.0 16.0 0.00 0.00 0.00 34 1006.8
20260504043541 69 208 8.0 16.0 0.00 0.00 0.00 33 1006.7
20260504043110 69 194 8.0 13.0 0.00 0.00 0.00 33 1006.8
20260504042520 69 183 8.0 13.0 0.00 0.00 0.00 33 1006.9
20260504042042 69 169 8.0 17.0 0.00 0.00 0.00 33 1006.9
20260504041623 69 180 10.0 18.0 0.00 0.00 0.00 32 1006.8
20260504041034 69 188 10.0 16.0 0.00 0.00 0.00 32 1007.1
20260504040527 70 171 11.0 13.0 0.00 0.00 0.00 32 1007.2
20260504040145 70 184 9.0 14.0 0.00 0.00 0.00 31 1007.1
20260504035530 70 184 9.0 14.0 0.00 0.00 0.00 31 1007.2
20260504035041 70 145 8.0 13.0 0.00 0.00 0.00 31 1007.4
20260504034627 71 175 8.0 16.0 0.00 0.00 0.00 30 1007.2
20260504034022 71 167 8.0 16.0 0.00 0.00 0.00 30 1007.3
20260504033539 71 165 8.0 12.0 0.00 0.00 0.00 29 1007.2
20260504033124 71 176 7.0 13.0 0.00 0.00 0.00 29 1007.2
20260504032522 72 169 8.0 13.0 0.00 0.00 0.00 29 1007.1
20260504032039 72 205 9.0 15.0 0.00 0.00 0.00 28 1007.0
20260504031640 72 178 8.0 15.0 0.00 0.00 0.00 28 1007.0
20260504031044 72 195 9.0 14.0 0.00 0.00 0.00 28 1007.0
20260504030538 73 178 8.0 13.0 0.00 0.00 0.00 28 1007.0
20260504030151 73 162 9.0 17.0 0.00 0.00 0.00 27 1006.9
20260504025539 73 190 9.0 17.0 0.00 0.00 0.00 27 1007.0
20260504025028 73 200 9.0 14.0 0.00 0.00 0.00 27 1007.0
20260504024620 73 169 8.0 14.0 0.00 0.00 0.00 27 1007.1
20260504024042 73 184 8.0 13.0 0.00 0.00 0.00 27 1006.9
20260504023532 73 178 7.0 11.0 0.00 0.00 0.00 27 1006.9
20260504023133 73 165 8.0 11.0 0.00 0.00 0.00 27 1006.9
20260504022532 73 173 8.0 12.0 0.00 0.00 0.00 27 1006.9
20260504022016 73 184 7.0 12.0 0.00 0.00 0.00 26 1007.0
20260504021631 73 175 6.0 11.0 0.00 0.00 0.00 26 1006.9
20260504021042 73 173 8.0 12.0 0.00 0.00 0.00 25 1006.8
20260504020517 74 155 9.0 12.0 0.00 0.00 0.00 25 1006.8
20260504020144 74 172 7.0 14.0 0.00 0.00 0.00 24 1006.7
20260504015540 74 173 7.0 12.0 0.00 0.00 0.00 24 1006.7
20260504015031 74 196 7.0 12.0 0.00 0.00 0.00 24 1006.8
20260504014636 74 174 7.0 11.0 0.00 0.00 0.00 24 1006.7
20260504014028 75 208 6.0 10.0 0.00 0.00 0.00 24 1006.6
20260504013528 75 186 6.0 11.0 0.00 0.00 0.00 24 1006.6
20260504013129 75 166 6.0 10.0 0.00 0.00 0.00 24 1006.6
20260504012542 76 163 5.0 9.0 0.00 0.00 0.00 23 1006.6
20260504012022 76 169 4.0 7.0 0.00 0.00 0.00 23 1006.8
20260504011635 76 182 4.0 10.0 0.00 0.00 0.00 23 1006.9